COSMOS 1275 DEB, 12707

Orbit data source: Space-Track

COSMOS 1275 DEB, 12707 is space debris in LEO originally from a launch on Thu, 04 Jun 1981 UTC launched from the Plesetsk Missile And Space Complex (PKMTR). Debris objects in space refer to the collection of defunct objects orbiting the Earth. Examples of debris include non-operational satellites, rocket bodies, and fragments generated from explosions, collisions, or faulty payload assembly.

Loading next visibility...
Identifier
12707, 1981-053BB
Orbit
LEO
Country
Flag of CISCIS
Related business
Manufacturer
Unknown
Mission
Spacecraft
Bus & Motor
Unknown
Mass
Unknown
Launch date (UTC)
1981-06-04 (45 years ago)
Launch vehicle
Unknown
Launch site
Plesetsk Missile And Space Complex (PKMTR)
Object type
Payload
Rocket body
Debris
Shape & HBR
Unknown shape, 0.1 m
Radar Cross Section
Medium (>0.1 m² and <1 m²)

Expand to show TLE details & history
Last TLE update: 1 day ago

TLE from 1 day ago
0 COSMOS 1275 DEB
1 12707U 81053BB  26255.23298102  .00000254  00000-0  30674-3 0  9995
2 12707  83.0144 328.0547 0128550 253.2536 161.7439 13.59850977230768
Epoch: 2026-09-12T05:35Z
TLE epoch observation values (Epoch: 2026-09-12T05:35:29.560Z)
Latitude
54.93388°
Longitude
-97.06194°
Altitude
1,135.963 km
Speed
7.245 km/s
True Right ascension
22h 32m 13s
True Declination
54° 46' 49"
Sunlit
Object was in daylight at epoch
Visualization orbit readout
Latitude
Unknown
Longitude
Unknown
Altitude
Unknown
Speed
Unknown
Apparent Right ascension
Unknown
Apparent Declination
Unknown
Sunlit
N/A
Visualization observer readout
Local Sidereal Time
21:48:27
Azimuth
Unknown
Elevation
Unknown
Doppler factor
Unknown
Orbital elements
Apogee altitude
1,128.675 km
Perigee altitude
938.125 km
Semi-major axis
7,411.537 km
Eccentricity
0.01286
Inclination
83.0144°
RAAN
328.0547°
Arg. of periapsis
253.2536°
True anomaly
162.19842°
Mean anomaly
161.7439°
Eccentric anomaly
161.97185°
Mean motion
3.40158 °/min
Orbital period
105.83 mins
BSTAR
0.00030674
Loading maneuver chart data...
Computing Atmospheric mass density...
Loading historical data...
Loading historical data...
Loading historical data...
Loading historical data...
Loading historical data...
Loading historical data...
Loading historical data...

Documentation

Showing up to 5 results
|